Location: Capvern
(43.1036°N, 0.3160°E)
Time: 03:35:42
(UTC+00:00)

Cosmos 1269 Rocket - Pass Details

Date: 16 October 2021
Orbit: 773 x 778 km, 74.1° (Epoch: 02 December)

Event Time Altitude Azimuth Distance (km) Brightness Sun altitude
Rises 19:04:48 0° 340° (NNW) 3,267 7.6 -20.9°
Reaches altitude 10° 19:07:12 10° 342° (NNW) 2,335 6.8 -21.4°
Maximum altitude 19:12:31 80° 70° (ENE) 792 3.9 -22.3°
Enters shadow 19:14:30 40° 151° (SSE) 1,140 4.6 -22.7°
